Location: Fort Wayne
(41.1310°N, 85.1290°W)
Time: 15:43:15
(UTC-05:00)

Gbstr 26 Del rocket - Visible Passes

Search period start: 27 November 2014 00:00
Search period end: 07 December 2014 00:00
Orbit: 493 x 1276 km, 51.8° (Epoch: 26 November)

Date Brightness Start Highest point End Pass type
(mag) Time Alt. Az. Time Alt. Az. Time Alt. Az.
27 Nov 6.3 03:46:38 15° NE 03:46:38 15° NE 03:47:36 10° NE visible
27 Nov 4.9 05:29:18 29° NNW 05:30:45 32° N 05:35:34 10° ENE visible
28 Nov 6.4 03:44:03 14° NE 03:44:03 14° NE 03:44:55 10° NE visible
28 Nov 4.8 05:26:44 31° NNW 05:28:09 35° NNE 05:33:02 10° ENE visible
28 Nov 3.5 07:10:12 10° NW 07:16:05 88° NE 07:20:45 10° SE visible
29 Nov 6.4 03:41:30 14° NE 03:41:30 14° NE 03:42:16 10° ENE visible
29 Nov 4.6 05:24:11 34° NNW 05:25:32 38° NNE 05:30:29 10° E visible
29 Nov 3.5 07:07:24 10° NW 07:13:16 75° SW 07:17:55 10° SE visible
30 Nov 6.4 03:38:58 13° NE 03:38:58 13° NE 03:39:38 10° ENE visible
30 Nov 4.5 05:21:39 38° N 05:22:53 43° NNE 05:27:55 10° E visible
30 Nov 3.7 07:04:37 10° WNW 07:10:23 59° SW 07:14:59 10° SE visible
01 Dec 6.5 03:36:29 13° ENE 03:36:29 13° ENE 03:37:01 10° ENE visible
01 Dec 4.3 05:19:10 45° N 05:20:12 49° NNE 05:25:18 10° E visible
01 Dec 4.0 07:01:52 10° WNW 07:07:27 45° SW 07:11:57 10° SSE visible
02 Dec 6.5 03:34:02 12° ENE 03:34:02 12° ENE 03:34:26 10° ENE visible
02 Dec 4.1 05:16:43 53° N 05:17:29 58° NNE 05:22:39 10° ESE visible
02 Dec 4.3 06:59:24 11° WNW 07:04:28 35° SW 07:08:48 10° SSE visible
03 Dec 6.6 03:31:39 11° ENE 03:31:39 11° ENE 03:31:51 10° ENE visible
03 Dec 3.8 05:14:20 66° N 05:14:43 68° NNE 05:19:57 10° ESE visible
03 Dec 4.6 06:57:01 12° WNW 07:01:25 27° SW 07:05:31 10° S visible
04 Dec 3.7 05:12:00 81° NE 05:12:00 81° NE 05:17:10 10° ESE visible
04 Dec 4.9 06:54:42 12° W 06:58:20 21° WSW 07:02:02 10° S visible
05 Dec 3.8 05:09:44 70° SSE 05:09:44 70° SSE 05:14:19 10° SE visible
05 Dec 5.2 06:52:26 12° W 06:55:12 16° WSW 06:58:17 10° SSW visible
06 Dec 4.2 05:07:32 50° SSE 05:07:32 50° SSE 05:11:23 10° SE visible
06 Dec 5.5 06:50:14 11° W 06:52:02 12° WSW 06:53:59 10° SW visible
06 Dec 6.4 19:57:18 10° SSE 19:58:24 13° SSE 19:58:24 13° SSE visible
